MSC2950 HEGN-EDDS

Flight info

Callsign MSC2950
Flight time N/A
Altitude 34000
Route HGD V608 NABED T55 KUNKI L321 REXUM M872 SOBAX DCT NOGLI L551 ANTAR UN133 KPC DCT FSK/N0454F360 UL608 DISOR DCT LONTA UL608 DOLEV DCT MITNO DCT LURID DCT PODET DCT TITIG L173 MAH/N0431F240 L173 DODIL T127 TEKSI TEKSI5A
Aircraft A320/M-SDE3FGHIRWY/LB1

Departure

Time 2026-04-27 12:35
Airport Hurghada International Airport (HEGN)

Arrival

Time N/A
Airport Stuttgart Airport (EDDS)
Time Latitude Longitude Altitude Speed Heading
2026-04-27 12:15 27.17852 33.80649 58 ft 0 kts 75°
2026-04-27 12:28 27.17850 33.80641 51 ft 4 kts 76°
2026-04-27 12:28 27.17844 33.80611 52 ft 4 kts 78°
2026-04-27 12:28 27.17839 33.80581 55 ft 4 kts 83°
2026-04-27 12:29 27.17838 33.80551 53 ft 4 kts 97°
2026-04-27 12:29 27.17845 33.80526 56 ft 4 kts 154°
2026-04-27 12:29 27.17853 33.80522 53 ft 0 kts 165°
2026-04-27 12:30 27.17852 33.80523 53 ft 1 kts 165°
2026-04-27 12:31 27.17821 33.80532 55 ft 12 kts 165°
2026-04-27 12:31 27.17717 33.80564 55 ft 15 kts 165°
2026-04-27 12:31 27.17618 33.80594 52 ft 14 kts 165°
2026-04-27 12:31 27.17530 33.80619 52 ft 13 kts 174°
2026-04-27 12:32 27.17477 33.80533 58 ft 14 kts 258°
2026-04-27 12:32 27.17436 33.80419 53 ft 19 kts 216°
2026-04-27 12:32 27.17306 33.80432 50 ft 18 kts 159°
2026-04-27 12:32 27.17196 33.80478 51 ft 16 kts 158°
2026-04-27 12:33 27.17097 33.80511 51 ft 14 kts 165°
2026-04-27 12:33 27.16978 33.80537 52 ft 24 kts 172°
2026-04-27 12:33 27.16882 33.80474 45 ft 16 kts 255°
2026-04-27 12:33 27.16905 33.80378 46 ft 14 kts 342°
2026-04-27 12:34 27.17010 33.80347 46 ft 25 kts 346°
2026-04-27 12:34 27.17393 33.80234 52 ft 87 kts 344°
2026-04-27 12:34 27.18148 33.80013 50 ft 136 kts 345°
2026-04-27 12:34 27.19197 33.79711 133 ft 168 kts 348°
2026-04-27 12:35 27.20267 33.79386 933 ft 154 kts 346°
2026-04-27 12:35 27.21248 33.78933 1645 ft 153 kts 320°
2026-04-27 12:35 27.21827 33.77867 2128 ft 177 kts 282°
2026-04-27 12:35 27.21867 33.76384 2570 ft 202 kts 274°
2026-04-27 12:36 27.21859 33.74699 3087 ft 228 kts 273°
2026-04-27 12:36 27.21850 33.72844 3760 ft 247 kts 272°
2026-04-27 12:36 27.21838 33.70835 4440 ft 267 kts 272°
2026-04-27 12:36 27.21825 33.68678 5184 ft 285 kts 271°
2026-04-27 12:37 27.21810 33.66507 6659 ft 267 kts 271°
2026-04-27 12:37 27.21797 33.64462 8092 ft 260 kts 271°
2026-04-27 12:37 27.21791 33.62434 9274 ft 260 kts 270°
2026-04-27 12:37 27.21788 33.60400 10279 ft 263 kts 270°
2026-04-27 12:38 27.21786 33.58293 10993 ft 275 kts 270°
2026-04-27 12:38 27.21911 33.56113 11730 ft 285 kts 283°
2026-04-27 12:38 27.22760 33.54067 12487 ft 298 kts 305°
2026-04-27 12:38 27.24342 33.52488 13258 ft 311 kts 319°
2026-04-27 12:39 27.26121 33.51048 14014 ft 319 kts 320°
2026-04-27 12:39 27.27985 33.49561 14344 ft 340 kts 320°
2026-04-27 12:39 27.29978 33.47974 14582 ft 360 kts 320°
2026-04-27 12:39 27.32053 33.46327 15151 ft 369 kts 321°
2026-04-27 12:40 27.34159 33.44655 15812 ft 373 kts 321°
2026-04-27 12:40 27.36289 33.42961 16456 ft 377 kts 321°
2026-04-27 12:40 27.38451 33.41236 16962 ft 385 kts 321°
2026-04-27 12:40 27.40650 33.39473 17477 ft 390 kts 321°
2026-04-27 12:41 27.42868 33.37693 18004 ft 394 kts 321°
2026-04-27 12:41 27.45108 33.35894 18487 ft 396 kts 321°
2026-04-27 12:41 27.47356 33.34084 18949 ft 398 kts 321°
2026-04-27 12:41 27.49610 33.32268 19419 ft 399 kts 321°
2026-04-27 12:42 27.51875 33.30444 19897 ft 400 kts 321°
2026-04-27 12:42 27.54140 33.28626 20380 ft 400 kts 321°
2026-04-27 12:42 27.56413 33.26808 20866 ft 400 kts 321°
2026-04-27 12:42 27.58690 33.24981 21242 ft 403 kts 321°
2026-04-27 12:43 27.60977 33.23144 21620 ft 405 kts 321°
2026-04-27 12:43 27.63242 33.21323 22002 ft 406 kts 321°
2026-04-27 12:43 27.65543 33.19468 22394 ft 407 kts 321°
2026-04-27 12:43 27.67846 33.17606 22788 ft 408 kts 321°
2026-04-27 12:44 27.70155 33.15738 23186 ft 408 kts 320°
2026-04-27 12:44 27.72465 33.13870 23579 ft 409 kts 320°
2026-04-27 12:44 27.74777 33.12000 23918 ft 409 kts 320°
2026-04-27 12:44 27.77091 33.10128 24261 ft 409 kts 320°
2026-04-27 12:45 27.79408 33.08252 24612 ft 410 kts 320°
2026-04-27 12:45 27.81724 33.06378 24968 ft 409 kts 320°
2026-04-27 12:45 27.84042 33.04506 25323 ft 409 kts 320°
2026-04-27 12:45 27.86354 33.02637 25684 ft 409 kts 320°
2026-04-27 12:46 27.88666 33.00766 26049 ft 408 kts 320°
2026-04-27 12:46 27.90967 32.98899 26423 ft 407 kts 320°
2026-04-27 12:46 27.93268 32.97028 26800 ft 407 kts 320°
2026-04-27 12:46 27.95564 32.95161 27178 ft 406 kts 320°
2026-04-27 12:47 27.97856 32.93301 27564 ft 405 kts 320°
2026-04-27 12:47 28.00143 32.91446 27953 ft 404 kts 320°
2026-04-27 12:47 28.02428 32.89592 28350 ft 403 kts 320°
2026-04-27 12:47 28.04699 32.87745 28749 ft 402 kts 320°
2026-04-27 12:48 28.06968 32.85898 29163 ft 400 kts 320°
2026-04-27 12:48 28.09219 32.84062 29580 ft 398 kts 319°
2026-04-27 12:48 28.11464 32.82231 29991 ft 397 kts 319°
2026-04-27 12:48 28.13696 32.80411 30348 ft 395 kts 319°
2026-04-27 12:49 28.15920 32.78595 30705 ft 392 kts 319°
2026-04-27 12:49 28.18124 32.76790 31065 ft 390 kts 319°
2026-04-27 12:49 28.20311 32.74998 31430 ft 387 kts 318°
2026-04-27 12:49 28.22490 32.73218 31802 ft 384 kts 318°
2026-04-27 12:50 28.24652 32.71456 32177 ft 382 kts 318°
2026-04-27 12:50 28.26803 32.69703 32558 ft 378 kts 317°
2026-04-27 12:50 28.28927 32.67969 32951 ft 375 kts 317°
2026-04-27 12:50 28.31000 32.66270 33335 ft 370 kts 317°
2026-04-27 12:51 28.33102 32.64546 33738 ft 366 kts 317°
2026-04-27 12:51 28.35140 32.62875 33921 ft 367 kts 316°
2026-04-27 12:51 28.37218 32.61167 33964 ft 371 kts 317°
2026-04-27 12:52 28.41458 32.57675 33984 ft 382 kts 317°
2026-04-27 12:52 28.45815 32.54088 33979 ft 392 kts 317°
2026-04-27 12:53 28.52576 32.48526 33998 ft 407 kts 317°
2026-04-27 12:53 28.57208 32.44720 33997 ft 415 kts 317°
2026-04-27 12:54 28.61919 32.40850 34105 ft 417 kts 318°
2026-04-27 12:54 28.64268 32.38920 34261 ft 416 kts 317°
2026-04-27 12:54 28.66607 32.36993 34392 ft 415 kts 317°
2026-04-27 12:55 28.68947 32.35060 34527 ft 415 kts 317°
2026-04-27 12:55 28.70493 32.33780 34616 ft 415 kts 317°
2026-04-27 12:55 28.72820 32.31848 34761 ft 414 kts 317°
2026-04-27 12:55 28.75152 32.29914 34886 ft 414 kts 317°
2026-04-27 12:56 28.77481 32.27984 35017 ft 414 kts 317°
2026-04-27 12:56 28.81167 32.24930 35220 ft 414 kts 317°
2026-04-27 12:56 28.85821 32.21066 35483 ft 413 kts 317°
2026-04-27 12:56 28.90460 32.17218 35721 ft 412 kts 317°
2026-04-27 12:57 28.95087 32.13375 35999 ft 411 kts 317°
2026-04-27 12:57 28.99723 32.09513 36009 ft 415 kts 317°
2026-04-27 12:57 29.09117 32.01677 36018 ft 421 kts 317°
2026-04-27 12:58 29.18616 31.93743 36029 ft 424 kts 318°
2026-04-27 12:58 29.24642 31.88714 36018 ft 426 kts 318°
2026-04-27 12:59 29.29433 31.84700 36021 ft 427 kts 318°
2026-04-27 12:59 29.34236 31.80666 36024 ft 428 kts 318°
2026-04-27 13:00 29.39012 31.76649 36028 ft 428 kts 318°
2026-04-27 13:00 29.43818 31.72599 36033 ft 429 kts 318°
2026-04-27 13:01 29.48629 31.68541 36033 ft 429 kts 318°
2026-04-27 13:01 29.53443 31.64482 36032 ft 430 kts 318°
2026-04-27 13:02 29.58264 31.60419 36025 ft 430 kts 318°
2026-04-27 13:02 29.63085 31.56354 36025 ft 430 kts 318°
2026-04-27 13:03 29.67897 31.52275 36028 ft 430 kts 318°
2026-04-27 13:03 29.72714 31.48189 36026 ft 431 kts 318°
2026-04-27 13:04 29.77539 31.44092 36021 ft 431 kts 318°
2026-04-27 13:04 29.82360 31.39990 36016 ft 431 kts 319°
2026-04-27 13:05 29.87205 31.35887 36016 ft 432 kts 319°
2026-04-27 13:05 29.92049 31.31773 36021 ft 433 kts 319°
2026-04-27 13:06 29.96723 31.27789 36023 ft 433 kts 319°
2026-04-27 13:06 30.01561 31.23644 36020 ft 433 kts 319°
2026-04-27 13:07 30.06405 31.19507 36019 ft 433 kts 319°
2026-04-27 13:07 30.11245 31.15370 36018 ft 433 kts 319°
2026-04-27 13:08 30.16078 31.11230 36020 ft 433 kts 319°
2026-04-27 13:08 30.20882 31.07105 36019 ft 432 kts 319°
2026-04-27 13:09 30.25708 31.02953 36019 ft 432 kts 319°
2026-04-27 13:09 30.30535 30.98799 36019 ft 432 kts 319°
2026-04-27 13:10 30.35353 30.94640 36015 ft 432 kts 319°
2026-04-27 13:10 30.40174 30.90483 36008 ft 432 kts 319°
2026-04-27 13:11 30.44997 30.86327 36002 ft 432 kts 319°
2026-04-27 13:11 30.49814 30.82166 36004 ft 432 kts 319°
2026-04-27 13:12 30.54629 30.77991 36003 ft 432 kts 319°
2026-04-27 13:12 30.59450 30.73819 36003 ft 432 kts 319°
2026-04-27 13:13 30.64272 30.69648 36009 ft 432 kts 319°
2026-04-27 13:13 30.69054 30.65492 36009 ft 432 kts 319°
2026-04-27 13:14 30.73867 30.61303 36011 ft 433 kts 319°
2026-04-27 13:14 30.78682 30.57106 36013 ft 433 kts 319°
2026-04-27 13:15 30.83501 30.52899 36017 ft 433 kts 319°
2026-04-27 13:15 30.88315 30.48703 36015 ft 432 kts 319°
2026-04-27 13:16 30.93127 30.44495 36017 ft 432 kts 319°
2026-04-27 13:16 30.97937 30.40285 36020 ft 432 kts 319°
2026-04-27 13:17 31.02749 30.36067 36024 ft 433 kts 319°
2026-04-27 13:17 31.07561 30.31846 36030 ft 433 kts 319°
2026-04-27 13:18 31.12370 30.27620 36034 ft 433 kts 319°
2026-04-27 13:18 31.17185 30.23387 36038 ft 433 kts 319°
2026-04-27 13:19 31.21994 30.19145 36043 ft 433 kts 319°
2026-04-27 13:19 31.26804 30.14896 36045 ft 433 kts 319°
2026-04-27 13:20 31.31581 30.10673 36046 ft 434 kts 319°
2026-04-27 13:20 31.36393 30.06416 36046 ft 434 kts 319°
2026-04-27 13:21 31.41205 30.02156 36042 ft 434 kts 319°
2026-04-27 13:21 31.46014 29.97888 36044 ft 434 kts 319°
2026-04-27 13:22 31.50823 29.93619 36033 ft 434 kts 319°
2026-04-27 13:22 31.55638 29.89346 36035 ft 434 kts 319°
2026-04-27 13:23 31.60447 29.85068 36032 ft 434 kts 319°
2026-04-27 13:23 31.65250 29.80777 36023 ft 434 kts 319°
2026-04-27 13:24 31.70054 29.76479 36021 ft 434 kts 319°
2026-04-27 13:24 31.74861 29.72183 36027 ft 434 kts 319°
2026-04-27 13:25 31.79665 29.67883 36028 ft 434 kts 319°
2026-04-27 13:25 31.84472 29.63584 36028 ft 434 kts 319°
2026-04-27 13:26 31.89278 29.59278 36021 ft 434 kts 319°
2026-04-27 13:26 31.94072 29.54957 36022 ft 434 kts 319°
2026-04-27 13:27 31.98870 29.50636 36019 ft 434 kts 319°
2026-04-27 13:27 32.03634 29.46343 36023 ft 434 kts 319°
2026-04-27 13:28 32.08430 29.42015 36022 ft 434 kts 319°
2026-04-27 13:28 32.13218 29.37683 36022 ft 434 kts 319°
2026-04-27 13:29 32.18007 29.33351 36020 ft 434 kts 319°
2026-04-27 13:29 32.22964 29.29271 36018 ft 437 kts 328°
2026-04-27 13:30 32.28314 29.25849 36016 ft 438 kts 328°
2026-04-27 13:30 32.33669 29.22422 36022 ft 438 kts 328°
2026-04-27 13:31 32.39019 29.18988 36023 ft 438 kts 328°
2026-04-27 13:31 32.44368 29.15544 36026 ft 438 kts 328°
2026-04-27 13:32 32.49717 29.12093 36020 ft 438 kts 328°
2026-04-27 13:32 32.55061 29.08645 36017 ft 438 kts 328°
2026-04-27 13:33 32.60386 29.05216 36023 ft 438 kts 328°
2026-04-27 13:33 32.65734 29.01755 36029 ft 438 kts 328°
2026-04-27 13:34 32.71078 28.98283 36028 ft 438 kts 328°
2026-04-27 13:34 32.76426 28.94817 36023 ft 438 kts 328°
2026-04-27 13:35 32.81778 28.91349 36026 ft 438 kts 328°
2026-04-27 13:35 32.87124 28.87870 36028 ft 438 kts 328°
2026-04-27 13:36 32.92472 28.84382 36027 ft 438 kts 328°
2026-04-27 13:36 32.97815 28.80893 36024 ft 438 kts 328°
2026-04-27 13:37 33.03162 28.77402 36024 ft 438 kts 328°
2026-04-27 13:37 33.08506 28.73904 36024 ft 438 kts 328°
2026-04-27 13:38 33.13855 28.70399 36018 ft 438 kts 328°
2026-04-27 13:38 33.19198 28.66901 36017 ft 438 kts 328°
2026-04-27 13:39 33.24545 28.63393 36021 ft 438 kts 328°
2026-04-27 13:39 33.29884 28.59873 36021 ft 438 kts 328°
2026-04-27 13:40 33.35229 28.56352 36022 ft 438 kts 328°
2026-04-27 13:40 33.40569 28.52828 36024 ft 438 kts 328°
2026-04-27 13:41 33.45008 28.49896 36022 ft 438 kts 328°
2026-04-27 13:41 33.51215 28.45792 36024 ft 438 kts 328°
2026-04-27 13:42 33.56553 28.42266 36029 ft 438 kts 328°
2026-04-27 13:42 33.61889 28.38734 36027 ft 438 kts 328°
2026-04-27 13:43 33.66357 28.35763 36027 ft 438 kts 328°
2026-04-27 13:43 33.71682 28.32216 36029 ft 438 kts 328°
2026-04-27 13:44 33.77001 28.28659 36029 ft 438 kts 328°
2026-04-27 13:44 33.82327 28.25099 36025 ft 438 kts 327°
2026-04-27 13:45 33.87640 28.21520 36028 ft 438 kts 327°
2026-04-27 13:45 33.92948 28.17932 36026 ft 438 kts 327°
2026-04-27 13:46 33.98257 28.14339 36027 ft 438 kts 327°
2026-04-27 13:46 34.03539 28.10760 36022 ft 438 kts 327°
2026-04-27 13:47 34.08848 28.07156 36022 ft 438 kts 327°
2026-04-27 13:47 34.14156 28.03552 36024 ft 438 kts 327°
2026-04-27 13:48 34.19464 27.99938 36023 ft 438 kts 327°
2026-04-27 13:48 34.24772 27.96325 36022 ft 438 kts 327°
2026-04-27 13:49 34.30084 27.92704 36022 ft 438 kts 327°
2026-04-27 13:49 34.35389 27.89074 36016 ft 438 kts 327°
2026-04-27 13:50 34.40692 27.85434 36017 ft 438 kts 327°
2026-04-27 13:50 34.45999 27.81797 36018 ft 438 kts 327°
2026-04-27 13:51 34.51313 27.78156 36018 ft 438 kts 327°
2026-04-27 13:51 34.56619 27.74509 36016 ft 438 kts 327°
2026-04-27 13:52 34.61921 27.70839 36017 ft 438 kts 327°
2026-04-27 13:52 34.67181 27.67190 36016 ft 439 kts 327°
2026-04-27 13:53 34.75142 27.61683 36017 ft 439 kts 327°
2026-04-27 13:54 34.80442 27.58002 36017 ft 439 kts 327°
2026-04-27 13:54 34.85742 27.54310 36018 ft 439 kts 327°
2026-04-27 13:55 34.91034 27.50619 36019 ft 439 kts 327°
2026-04-27 13:55 34.96338 27.46914 36017 ft 439 kts 327°
2026-04-27 13:56 35.01641 27.43213 36018 ft 439 kts 327°
2026-04-27 13:56 35.06944 27.39504 36019 ft 439 kts 327°
2026-04-27 13:57 35.12209 27.35808 36016 ft 439 kts 327°
2026-04-27 13:57 35.17509 27.32090 36013 ft 439 kts 327°
2026-04-27 13:58 35.22811 27.28366 36009 ft 440 kts 327°
2026-04-27 13:58 35.28120 27.24634 36006 ft 440 kts 327°
2026-04-27 13:59 35.33428 27.20892 36003 ft 440 kts 327°
2026-04-27 13:59 35.38735 27.17134 36000 ft 441 kts 327°
2026-04-27 14:00 35.44045 27.13389 36001 ft 441 kts 328°
2026-04-27 14:00 35.49430 27.09764 36002 ft 442 kts 329°
2026-04-27 14:01 35.54840 27.06184 36009 ft 442 kts 329°
2026-04-27 14:01 35.60240 27.02577 36017 ft 442 kts 328°
2026-04-27 14:02 35.65626 26.98940 36024 ft 442 kts 328°
2026-04-27 14:02 35.71015 26.95299 36028 ft 442 kts 328°
2026-04-27 14:03 35.76402 26.91661 36038 ft 442 kts 329°
2026-04-27 14:03 35.81794 26.88025 36037 ft 442 kts 328°
2026-04-27 14:04 35.87179 26.84370 36038 ft 442 kts 328°
2026-04-27 14:04 35.92564 26.80713 36033 ft 442 kts 328°
2026-04-27 14:05 35.97951 26.77052 36032 ft 442 kts 328°
2026-04-27 14:05 36.03340 26.73381 36033 ft 442 kts 328°
2026-04-27 14:06 36.08722 26.69708 36034 ft 442 kts 328°
2026-04-27 14:06 36.14114 26.66019 36031 ft 442 kts 328°
2026-04-27 14:07 36.19466 26.62359 36032 ft 443 kts 328°
2026-04-27 14:07 36.24856 26.58667 36032 ft 443 kts 328°
2026-04-27 14:08 36.30246 26.54966 36031 ft 443 kts 328°
2026-04-27 14:08 36.35637 26.51263 36032 ft 443 kts 328°
2026-04-27 14:09 36.41033 26.47551 36033 ft 443 kts 328°
2026-04-27 14:09 36.46422 26.43832 36032 ft 443 kts 328°
2026-04-27 14:10 36.51813 26.40105 36036 ft 443 kts 328°
2026-04-27 14:10 36.57205 26.36379 36040 ft 444 kts 328°
2026-04-27 14:11 36.62599 26.32643 36037 ft 444 kts 328°
2026-04-27 14:11 36.67995 26.28900 36038 ft 444 kts 328°
2026-04-27 14:12 36.73389 26.25144 36041 ft 444 kts 328°
2026-04-27 14:12 36.78748 26.21403 36045 ft 444 kts 328°
2026-04-27 14:13 36.84148 26.17634 36047 ft 445 kts 328°
2026-04-27 14:13 36.89551 26.13866 36051 ft 445 kts 328°
2026-04-27 14:14 36.94972 26.10083 36056 ft 446 kts 328°
2026-04-27 14:14 37.00392 26.06285 36064 ft 447 kts 328°
2026-04-27 14:15 37.05815 26.02472 36065 ft 447 kts 328°
2026-04-27 14:15 37.11233 25.98657 36067 ft 447 kts 328°
2026-04-27 14:16 37.16655 25.94835 36070 ft 447 kts 328°
2026-04-27 14:16 37.22076 25.91004 36075 ft 447 kts 328°
2026-04-27 14:17 37.27461 25.87200 36075 ft 447 kts 328°
2026-04-27 14:17 37.32882 25.83367 36071 ft 447 kts 328°
2026-04-27 14:18 37.38293 25.79527 36080 ft 447 kts 328°
2026-04-27 14:18 37.43705 25.75678 36085 ft 447 kts 328°
2026-04-27 14:19 37.49113 25.71824 36075 ft 447 kts 328°
2026-04-27 14:19 37.54526 25.67970 36087 ft 447 kts 328°
2026-04-27 14:20 37.59929 25.64117 36096 ft 446 kts 328°
2026-04-27 14:20 37.65333 25.60249 36094 ft 446 kts 328°
2026-04-27 14:21 37.70734 25.56379 36086 ft 446 kts 328°
2026-04-27 14:21 37.76133 25.52507 36095 ft 446 kts 328°
2026-04-27 14:22 37.81499 25.48654 36100 ft 446 kts 328°
2026-04-27 14:22 37.86896 25.44769 36102 ft 446 kts 328°
2026-04-27 14:23 37.92285 25.40872 36105 ft 446 kts 328°
2026-04-27 14:23 37.97679 25.36979 36107 ft 446 kts 328°
2026-04-27 14:24 38.03070 25.33089 36101 ft 446 kts 328°
2026-04-27 14:24 38.08456 25.29177 36108 ft 446 kts 328°
2026-04-27 14:25 38.13844 25.25257 36104 ft 446 kts 328°
2026-04-27 14:25 38.19232 25.21345 36109 ft 446 kts 328°
2026-04-27 14:26 38.24616 25.17425 36111 ft 446 kts 328°
2026-04-27 14:26 38.29959 25.13525 36117 ft 446 kts 328°
2026-04-27 14:27 38.35341 25.09592 36122 ft 446 kts 328°
2026-04-27 14:27 38.40717 25.05655 36128 ft 446 kts 328°
2026-04-27 14:28 38.46093 25.01713 36130 ft 445 kts 328°
2026-04-27 14:28 38.51467 24.97760 36131 ft 445 kts 328°
2026-04-27 14:29 38.56831 24.93802 36133 ft 445 kts 328°
2026-04-27 14:29 38.62201 24.89849 36135 ft 445 kts 328°
2026-04-27 14:30 38.66658 24.86564 36141 ft 445 kts 328°
2026-04-27 14:30 38.72017 24.82595 36145 ft 445 kts 328°
2026-04-27 14:31 38.77368 24.78620 36149 ft 445 kts 328°
2026-04-27 14:31 38.82722 24.74638 36150 ft 444 kts 328°
2026-04-27 14:32 38.88069 24.70660 36152 ft 444 kts 328°
2026-04-27 14:32 38.93421 24.66683 36153 ft 444 kts 328°
2026-04-27 14:33 38.98766 24.62693 36159 ft 444 kts 328°
2026-04-27 14:33 39.04102 24.58699 36162 ft 444 kts 327°
2026-04-27 14:34 39.09437 24.54704 36166 ft 444 kts 327°
2026-04-27 14:34 39.14743 24.50728 36163 ft 444 kts 327°
2026-04-27 14:35 39.20071 24.46711 36169 ft 444 kts 327°
2026-04-27 14:35 39.25400 24.42699 36169 ft 444 kts 327°
2026-04-27 14:36 39.30730 24.38682 36170 ft 444 kts 327°
2026-04-27 14:36 39.36058 24.34653 36172 ft 444 kts 327°
2026-04-27 14:37 39.41379 24.30614 36175 ft 443 kts 327°
2026-04-27 14:37 39.46706 24.26580 36181 ft 443 kts 327°
2026-04-27 14:38 39.52025 24.22548 36181 ft 443 kts 327°
2026-04-27 14:38 39.57338 24.18505 36184 ft 443 kts 327°
2026-04-27 14:39 39.62652 24.14455 36181 ft 443 kts 327°
2026-04-27 14:39 39.67958 24.10390 36184 ft 443 kts 327°
2026-04-27 14:40 39.73229 24.06351 36187 ft 442 kts 327°
2026-04-27 14:40 39.78530 24.02290 36187 ft 442 kts 327°
2026-04-27 14:41 39.83831 23.98223 36190 ft 442 kts 327°
2026-04-27 14:41 39.89116 23.94150 36185 ft 442 kts 327°
2026-04-27 14:42 39.94403 23.90068 36185 ft 441 kts 327°
2026-04-27 14:42 39.99690 23.85986 36181 ft 441 kts 327°
2026-04-27 14:43 40.04977 23.81906 36183 ft 441 kts 327°
2026-04-27 14:43 40.10260 23.77815 36187 ft 441 kts 326°
2026-04-27 14:44 40.15498 23.73735 36182 ft 441 kts 326°
2026-04-27 14:44 40.20779 23.69632 36180 ft 441 kts 326°
2026-04-27 14:45 40.26050 23.65520 36177 ft 441 kts 326°
2026-04-27 14:45 40.31322 23.61408 36181 ft 441 kts 326°
2026-04-27 14:46 40.36587 23.57283 36177 ft 441 kts 326°
2026-04-27 14:46 40.41848 23.53150 36175 ft 441 kts 326°
2026-04-27 14:47 40.47115 23.49025 36180 ft 441 kts 326°
2026-04-27 14:47 40.52382 23.44896 36172 ft 441 kts 326°
2026-04-27 14:48 40.57640 23.40748 36174 ft 441 kts 326°
2026-04-27 14:48 40.65526 23.34516 36170 ft 441 kts 326°
2026-04-27 14:49 40.70788 23.30356 36171 ft 441 kts 326°
2026-04-27 14:49 40.76046 23.26190 36167 ft 441 kts 326°
2026-04-27 14:50 40.81291 23.22021 36170 ft 440 kts 326°
2026-04-27 14:50 40.86535 23.17841 36165 ft 440 kts 326°
2026-04-27 14:51 40.91752 23.13683 36164 ft 440 kts 326°
2026-04-27 14:51 40.96141 23.10178 36162 ft 440 kts 326°
2026-04-27 14:52 41.02232 23.05287 36157 ft 440 kts 326°
2026-04-27 14:52 41.07472 23.01078 36161 ft 440 kts 325°
2026-04-27 14:53 41.12025 22.95821 36156 ft 434 kts 308°
2026-04-27 14:53 41.15924 22.89687 36152 ft 434 kts 309°
2026-04-27 14:54 41.19807 22.83580 36149 ft 434 kts 309°
2026-04-27 14:54 41.23699 22.77458 36146 ft 434 kts 309°
2026-04-27 14:55 41.27672 22.71364 36145 ft 435 kts 310°
2026-04-27 14:55 41.31769 22.65456 36147 ft 435 kts 311°
2026-04-27 14:56 41.35868 22.59570 36145 ft 435 kts 311°
2026-04-27 14:56 41.39962 22.53586 36145 ft 435 kts 311°
2026-04-27 14:57 41.44006 22.47612 36141 ft 434 kts 310°
2026-04-27 14:57 41.48033 22.41665 36140 ft 434 kts 311°
2026-04-27 14:58 41.52092 22.35689 36135 ft 434 kts 311°